Tracking 34747 objects as of 17-Jul-2026
HD Live streaming from Space Station
objects crossing your sky now

BREEZE-M DEB

Track BREEZE-M DEB now!
10-day predictions


NORAD ID: 36959
Int'l Code: 2006-006CR
Perigee: 381.8 km
Apogee: 5,656.8 km
Inclination: 51.9 °
Period: 150.9 minutes
Semi major axis: 9390 km
RCS: 0.0036 m2 (small)
Launch date: February 28, 2006
Source: Commonwealth of Independent States (former USSR) (CIS)
Launch site: TYURATAM MISSILE AND SPACE COMPLEX (TTMTR)

Note: This is SATELLITE DEBRIS
Your satellite tracking list
Your tracking list is empty




NASA's NSSDC Master Catalog

Two Line Element Set (TLE):
1 36959U 06006CR  26196.80170448  .00029481  00000-0  50434-2 0  9992
2 36959  51.8878 226.0774 2808745 234.2124 327.2071  9.54078057351805
Source of the keplerian elements: AFSPC